This is the latest recevied weather packets stored in our database for station/object N8TWM-13. If no packets are shown the sender has not sent any weather packets the latest 10 day(s).
| Time | Temp. | Humidity | Pressure | Rain* | Wind** | Luminosity | Snow |
|---|---|---|---|---|---|---|---|
| 1777601028 | 6.67° C | 77% | 1015.2 hPa | 0 mm | - | 0 W/m² | - |
| 1777600724 | 6.11° C | 77% | 1015 hPa | 0 mm | - | 0 W/m² | - |
| 1777600420 | 6.67° C | 77% | 1015.3 hPa | 0 mm | - | 0 W/m² | - |
| 1777600116 | 6.11° C | 77% | 1014.9 hPa | 0 mm | - | 0 W/m² | - |
| 1777599812 | 6.11° C | 77% | 1015 hPa | 0 mm | - | 0 W/m² | - |
| 1777599508 | 6.11° C | 76% | 1014.8 hPa | 0 mm | - | 0 W/m² | - |
| 1777599205 | 6.67° C | 76% | 1014.9 hPa | 0 mm | - | 0 W/m² | - |
| 1777598901 | 6.67° C | 76% | 1014.7 hPa | 0 mm | - | 0 W/m² | - |
| 1777598599 | 6.67° C | 75% | 1014.4 hPa | 0 mm | - | 0 W/m² | - |
| 1777598295 | 7.22° C | 73% | 1014.6 hPa | 0 mm | - | 0 W/m² | - |
| 1777597993 | 7.22° C | 71% | 1014.7 hPa | 0 mm | - | 0 W/m² | - |
| 1777597691 | 7.22° C | 70% | 1014.7 hPa | 0 mm | - | 0 W/m² | - |
| 1777597388 | 7.78° C | 69% | 1014.8 hPa | 0 mm | - | 0 W/m² | - |
| 1777597083 | 7.78° C | 68% | 1014.6 hPa | 0 mm | - | 0 W/m² | - |
| 1777596780 | 7.78° C | 68% | 1014.6 hPa | 0 mm | - | 0 W/m² | - |
| 1777596475 | 7.78° C | 66% | 1014.6 hPa | 0 mm | - | 0 W/m² | - |
| 1777596173 | 8.33° C | 65% | 1014.7 hPa | 0 mm | - | 0 W/m² | - |
| 1777595870 | 8.33° C | 64% | 1014.7 hPa | 0 mm | - | 0 W/m² | - |
| 1777595570 | 8.89° C | 61% | 1014.6 hPa | 0 mm | - | 0 W/m² | - |
| 1777595266 | 8.89° C | 59% | 1014.8 hPa | 0 mm | - | 1 W/m² | - |
| 1777594962 | 9.44° C | 58% | 1014.6 hPa | 0 mm | - | 2 W/m² | - |
| 1777594659 | 9.44° C | 57% | 1014.6 hPa | 0 mm | - | 4 W/m² | - |
| 1777594356 | 10° C | 56% | 1014.5 hPa | 0 mm | - | 8 W/m² | - |
| 1777594052 | 10° C | 55% | 1014.4 hPa | 0 mm | - | 11 W/m² | - |
| 1777593747 | 10° C | 54% | 1014.6 hPa | 0 mm | - | 13 W/m² | - |
* Rain latest hour (hover to see other rain measurements)
** Current wind speed in m/s (hover to see current wind gust speed)